Location: Bannatyne
(13.0833°N, 59.5333°W)
Time: 10:05:43
(UTC+00:00)

ISS - Visible Passes

Search period start: 18 June 2021 00:00
Search period end: 28 June 2021 00:00
Orbit: 417 x 422 km, 51.6° (Epoch: 18 June)

Date Brightness Start Highest point End Pass type
(mag) Time Alt. Az. Time Alt. Az. Time Alt. Az.
18 Jun -3.0 09:01:42 10° SSW 09:04:58 50° SE 09:08:13 10° NE visible
19 Jun -1.7 08:15:46 15° SSE 08:17:37 22° SE 08:20:16 10° ENE visible
20 Jun -0.7 07:30:45 10° ESE 07:30:45 10° ESE 07:30:50 10° ESE visible
20 Jun -2.5 09:03:54 10° WSW 09:06:48 27° NW 09:09:42 10° N visible
21 Jun -3.7 08:18:39 47° WSW 08:19:22 63° NW 08:22:42 10° NNE visible
22 Jun -1.7 07:33:28 27° ENE 07:33:28 27° ENE 07:35:15 10° NE visible
23 Jun -1.5 08:21:12 13° NW 08:21:17 13° NW 08:23:00 10° NNW visible
24 Jun -1.1 07:35:51 15° N 07:35:51 15° N 07:36:41 10° N visible
